Weather History for KUIL - April, 2012

Change the Weather History Date:

Sunday, April 15, 2012

  Actual Average Record
Temperature  
Mean Temperature 50 °F 46 °F  
Max Temperature 57 °F 55 °F 75 °F (1990)
Min Temperature 42 °F 38 °F 28 °F (1970)
Degree Days  
Heating Degree Days 15 19  
Month to date heating degree days 288  
Since 1 July heating degree days 4781  
Cooling Degree Days 0 0  
Month to date cooling degree days 0  
Year to date cooling degree days 0  
Moisture  
Dew Point 41 °F    
Average Humidity 73    
Maximum Humidity 93    
Minimum Humidity 41    
Precipitation  
Precipitation 0.05 in 0.27 in 1.89 in (1997)
Month to date precipitation 4.26  
Year to date precipitation 40.05  
Sea Level Pressure  
Sea Level Pressure 30.12 in    
Wind  
Wind Speed 4 mph (South)    
Max Wind Speed 13 mph    
Max Gust Speed 20 mph    
Visibility 10 miles    
Events Rain    
T = Trace of Precipitation, MM = Missing Value Source: NWS Daily Summary

Daily Weather History Graph

Daily Weather History Graph

Search for Another Location

Airport or City:

Trip Planner

Search our weather history database for the weather conditions in past years. The results will help you decide how hot, cold, wet, or windy it might be!

Date:

Astronomy

Apr. 15, 2012 Rise Set
Actual Time 6:27 AM PDT 8:09 PM PDT
Civil Twilight 5:55 AM PDT 8:42 PM PDT
Nautical Twilight 5:15 AM PDT 9:22 PM PDT
Astronomical Twilight 4:31 AM PDT 10:06 PM PDT
Moon 3:51 AM PDT (4/15) 2:48 PM PDT (4/15)
Length of Visible Light 14h 46m
Length of Day
13h 41m
Waning Crescent, 26% of the Moon is Illuminated
Apr 15
Waning Crescent
Apr 21
New
Apr 29
First Quarter
May 5
Full
May 12
Last Quarter

Hourly Weather History & Observations

Time (PDT) Temp. Windchill Dew Point Humidity Pressure Visibility Wind Dir Wind Speed Gust Speed Precip Events Conditions
12:53 AM 44.1 °F - 41.0 °F 89% 30.19 in 10.0 mi Calm Calm - N/A   Scattered Clouds
1:53 AM 43.0 °F - 41.0 °F 93% 30.19 in 10.0 mi Calm Calm - N/A   Overcast
2:53 AM 43.0 °F - 39.9 °F 89% 30.19 in 10.0 mi Calm Calm - N/A   Scattered Clouds
3:00 AM - - - N/A% - - North - - N/A   Unknown
3:53 AM 43.0 °F - 41.0 °F 93% 30.19 in 10.0 mi Calm Calm - N/A   Overcast
4:53 AM 43.0 °F 39.5 °F 41.0 °F 93% 30.18 in 10.0 mi East 5.8 mph - N/A   Overcast
5:53 AM 43.0 °F - 39.9 °F 89% 30.18 in 10.0 mi Calm Calm - N/A   Overcast
6:53 AM 43.0 °F 40.3 °F 39.9 °F 89% 30.18 in 10.0 mi ENE 4.6 mph - N/A   Overcast
7:53 AM 44.1 °F - 41.0 °F 89% 30.19 in 10.0 mi Calm Calm - N/A   Overcast
8:53 AM 46.9 °F - 41.0 °F 80% 30.19 in 10.0 mi Calm Calm - N/A   Overcast
9:53 AM 51.1 °F - 44.1 °F 77% 30.17 in 10.0 mi SSW 4.6 mph - N/A   Overcast
10:53 AM 54.0 °F - 44.1 °F 69% 30.17 in 10.0 mi SSW 3.5 mph - N/A   Overcast
11:53 AM 55.0 °F - 44.1 °F 67% 30.16 in 10.0 mi South 6.9 mph - N/A   Mostly Cloudy
12:53 PM 55.0 °F - 45.0 °F 69% 30.16 in 10.0 mi Variable 6.9 mph - N/A   Overcast
1:53 PM 54.0 °F - 45.0 °F 72% 30.15 in 10.0 mi SW 6.9 mph - N/A   Overcast
2:53 PM 55.9 °F - 43.0 °F 62% 30.14 in 10.0 mi SSW 6.9 mph - N/A   Overcast
3:53 PM 55.9 °F - 39.9 °F 55% 30.12 in 10.0 mi South 6.9 mph - N/A   Overcast
4:53 PM 55.9 °F - 39.0 °F 53% 30.09 in 10.0 mi South 6.9 mph - N/A   Overcast
5:53 PM 55.9 °F - 36.0 °F 47% 30.07 in 10.0 mi Variable 3.5 mph - N/A   Overcast
6:53 PM 53.1 °F - 37.0 °F 55% 30.06 in 10.0 mi Calm Calm - N/A   Overcast
7:53 PM 53.1 °F - 37.9 °F 57% 30.03 in 10.0 mi SSE 3.5 mph - N/A   Overcast
8:53 PM 52.0 °F - 36.0 °F 54% 30.01 in 10.0 mi Calm Calm - N/A   Overcast
9:53 PM 51.1 °F - 42.1 °F 71% 30.01 in 10.0 mi South 8.1 mph - N/A   Overcast
10:53 PM 48.0 °F - 42.1 °F 80% 29.99 in 8.0 mi SE 8.1 mph 17.3 mph 0.00 in Rain Light Rain
11:53 PM 46.9 °F - 45.0 °F 93% 29.96 in 10.0 mi East 4.6 mph - 0.04 in Rain Light Rain